Location: Columbia, SC
(34.0000°N, 81.0300°W)
Time: 18:52:45
(UTC-04:00)

Tiangong 1 - Visible Passes

Search period start: 30 October 2014 00:00
Search period end: 08 November 2014 23:00
Orbit: 347 x 359 km, 42.8° (Epoch: 30 October)

Date Brightness Start Highest point End Pass type
(mag) Time Alt. Az. Time Alt. Az. Time Alt. Az.
30 Oct 3.3 20:08:33 10° NW 20:09:46 16° NNW 20:09:46 16° NNW visible
31 Oct 3.1 18:58:57 10° NW 19:00:51 16° N 19:02:45 10° NE visible
31 Oct 4.1 20:34:40 10° NW 20:34:56 12° NW 20:34:56 12° NW visible
01 Nov 2.6 19:25:04 10° NW 19:27:27 21° NNE 19:28:28 18° NE visible
02 Nov 1.5 18:50:53 10° NW 18:53:31 42° N 18:53:31 42° N visible
03 Nov 2.7 19:16:46 10° WNW 19:18:34 32° W 19:18:34 32° W visible
04 Nov 1.1 18:06:33 10° NW 18:09:28 53° NNE 18:12:05 12° ESE visible
04 Nov 4.4 19:43:15 10° W 19:43:39 12° WSW 19:43:39 12° WSW visible
05 Nov 1.9 18:32:13 10° WNW 18:35:03 44° SSW 18:37:14 15° SE visible
06 Nov 3.9 18:58:48 10° WSW 19:00:17 13° SW 19:01:45 10° S visible
08 Nov 4.4 18:14:16 10° SW 18:14:45 10° SW 18:15:14 10° SSW visible
